Location: Possagno
(45.8500°N, 11.8667°E)
Time: 00:01:08
(UTC+00:00)

Resurs 1-4 Rocket - Pass Details

Date: 03 October 2020
Orbit: 800 x 813 km, 98.6° (Epoch: 27 October)

Event Time Altitude Azimuth Distance (km) Brightness Sun altitude
Rises 01:25:11 0° 9° (N) 3,333 5.9 -37.9°
Reaches altitude 10° 01:27:34 10° 5° (N) 2,399 5.0 -37.6°
Enters shadow 01:28:56 18° 0° (N) 1,888 4.3 -37.4°
